• MPC Preparation (Info)

  • MPEC 2013-F43 : 2013 FC11

    The following Minor Planet Electronic Circular may be linked-to from your own Web pages, but must not otherwise be redistributed electronically.

    A form allowing access to any MPEC is at the bottom of this page.


    Read MPEC 2013-F42 Read MPEC 2013-F44


    M.P.E.C. 2013-F43                                Issued 2013 Mar. 23, 10:40 UT
    
         The Minor Planet Electronic Circulars contain information on unusual
             minor planets and routine data on comets.  They are published
       on behalf of Commission 20 of the International Astronomical Union by the
              Minor Planet Center, Smithsonian Astrophysical Observatory,
                              Cambridge, MA 02138, U.S.A.
    
                 Prepared using the Tamkin Foundation Computer Network
    
                                  MPC@CFA.HARVARD.EDU
                URL https://www.minorplanetcenter.net/    ISSN 1523-6714
    
                                       2013 FC11
    
    Observations:
         K13F11C* C2013 03 19.48459312 25 10.790-02 55 47.29         20.9 RtEF043F51
         K13F11C  C2013 03 19.49991312 25 09.581-02 55 36.61         21.0 RtEF043F51
         K13F11C  C2013 03 19.51530512 25 08.397-02 55 26.28         21.0 RtEF043F51
         K13F11C  C2013 03 19.53073412 25 07.198-02 55 15.77         20.7 RtEF043F51
         K13F11C KC2013 03 22.26297312 21 47.58 -02 24 31.2          21.7 VuEF043H21
         K13F11C KC2013 03 22.27552512 21 46.64 -02 24 22.9          21.5 VuEF043H21
         K13F11C KC2013 03 22.28809112 21 45.68 -02 24 14.7          21.6 VuEF043H21
         K13F11C  C2013 03 23.28412 12 20 34.43 -02 13 13.0                oEF043711
         K13F11C  C2013 03 23.28781 12 20 34.03 -02 13 09.6                oEF043711
         K13F11C FC2013 03 23.29185 12 20 33.74 -02 13 06.9                oEF043711
    
    Observer details:
    711 McDonald Observatory.  Observer J. G. Ries.  2.1-m reflector + CCD + focal
        reducer.
    F51 Pan-STARRS 1, Haleakala.  Observers N. Primak, A. Schultz, S. Watters,
        J. Thiel, T. Goggia.  Measurer T. Vorobjov.  1.8-m f/4.4 Ritchey-Chretien
        + CCD.
    H21 Astronomical Research Observatory, Westfield.  Observer R. Holmes.
        Measurers S. Foglia, L. Buzzi, T. Linder, T. Vorobjov.  0.81-m f/4.0
        astrograph + CCD.
    
    Orbital elements:
    2013 FC11                                                Earth MOID = 0.1632 AU
    Epoch 2013 Apr. 18.0 TT = JDT 2456400.5                 MPC
    M  41.56121              (2000.0)            P               Q
    n   0.25839574     Peri.  265.06564     +0.01776913     -0.99983400
    a   2.4412513      Node   183.92299     +0.93909196     +0.01807237
    e   0.5349749      Incl.    3.37564     +0.34320629     +0.00231512
    P   3.81           H   20.1           G   0.15           U   9
    Residuals in seconds of arc
    130319 F51  0.0   0.0     130322 H21  0.2-  0.2-    130323 711  0.5-  0.5+
    130319 F51  0.2-  0.2+    130322 H21  0.1-  0.2-    130323 711  0.3-  0.5+
    130319 F51  0.1+  0.0     130322 H21  0.2-  0.4-
    130319 F51  0.1+  0.1-    130323 711  1.3+  0.5-
    
    Ephemeris:
    2013 FC11                a,e,i = 2.44, 0.53, 3                   q = 1.1352
    Date    TT    R. A. (2000) Decl.     Delta      r     Elong.  Phase     V
    2013 02 21    12 53 45.0 -07 34 27   0.7462  1.6170   137.0    24.6    21.7
    ...
    2013 03 08    12 39 17.6 -05 07 50   0.7652  1.7211   156.3    13.4    21.5
    ...
    2013 03 16    12 29 30.6 -03 35 51   0.7932  1.7769   167.2     7.1    21.4
    ...
    2013 03 22    12 22 06.7 -02 27 20   0.8238  1.8186   175.3     2.6    21.3
    2013 03 23    12 20 54.6 -02 16 15   0.8297  1.8256   176.6     1.8    21.2
    2013 03 24    12 19 43.5 -02 05 18   0.8359  1.8325   178.0     1.1    21.2
    ...
    2013 03 30    12 12 59.9 -01 03 06   0.8779  1.8741   174.1     3.1    21.5
    ...
    2013 04 07    12 05 25.4 +00 07 39   0.9471  1.9292   164.0     8.2    22.0
    ...
    2013 04 22    11 56 47.2 +01 33 52   1.1141  2.0310   146.8    15.7    22.7
    
    A. U. Tomatic                (C) Copyright 2013 MPC           M.P.E.C. 2013-F43
    

    Read MPEC 2013-F42 Read MPEC 2013-F44


    MPEC number:

    Enter an MPEC number in one of the following forms:

    • 1997-B01 (the full form)
    • J97B01 (the packed version of the full form)
    • B01 (the abbreviated form)